Regional Weather Roundup
Issued by NWS Newport/Morehead, NC

Current Version | Previous Version | Text Only | Print | Product List | Glossary On
Versions: 1 2 3 4 5 6 7 8 9 10 11 12 13 14 15 16 17 18 19 20 21 22 23 24 25 26 27 28 29 30 31 32 33 34 35 36 37 38 39 40 41 42 43 44 45 46 47 48 49 50
000 ASUS42 KMHX 020513 RWRMHX WEATHER ROUNDUP FOR EASTERN NORTH CAROLINA NATIONAL WEATHER SERVICE NEWPORT/MOREHEAD CITY NC 100 AM EDT WED SEP 02 2015 NOTE: "FAIR" INDICATES FEW OR NO CLOUDS BELOW 12,000 FEET WITH NO SIGNIFICANT WEATHER AND/OR OBSTRUCTIONS TO VISIBILITY NCZ015>017-031-032-045>047-102-103-020600- NORTH COAST CITY SKY/WX TMP DP RH WIND PRES REMARKS EDENTON CLEAR 70 69 95 CALM 30.07S ELIZABETH CITY FOG 72 72 100 CALM 30.06S VSB 1/2 KITTY HAWK CLEAR 74 69 87 CALM 30.05S MANTEO CLEAR 72 72 98 CALM 30.06S $$ NCZ045>047-081-094-103-104-020600- CENTRAL COAST CITY SKY/WX TMP DP RH WIND PRES REMARKS FRISCO CLEAR 73 72 96 W3 30.06S SWANQUARTER N/A 73 N/A N/A W1 30.03S $$ NCZ095-097-098-100-101-020600- SOUTHERN COAST CITY SKY/WX TMP DP RH WIND PRES REMARKS BEAUFORT PTCLDY 76 76 100 CALM 30.07S CEDAR ISLAND N/A 77 N/A N/A SW5 30.09S JACKSONVILLE PTCLDY 75 72 90 SW5 30.07S PINEY ISLAND PTCLDY N/A N/A N/A SW3 30.06S WILMINGTON PTCLDY 76 73 91 SW3 30.08S $$ NCZ011>013-027>030-043-044-078>080-089-090>093-098-020600- COASTAL PLAIN CITY SKY/WX TMP DP RH WIND PRES REMARKS AHOSKIE CLEAR 68 68 98 CALM 30.07F FOG CLINTON CLEAR 73 73 100 CALM 30.08S ELIZABETHTOWN PTCLDY 76 74 92 CALM 30.08S GOLDSBORO CLEAR 72 70 94 CALM 30.06S GREENVILLE CLEAR 72 72 100 CALM 30.09S FOG HAVELOCK CLEAR 74 72 93 SW5 30.08S KENANSVILLE N/A 71 70 97 CALM 30.08F KINSTON PTCLDY 72 71 97 CALM 30.08S NEW BERN PTCLDY 74 72 93 SW5 30.08F RICHLANDS N/A 72 66 83 CALM 30.08S VSB 3/4 ROCKY MOUNT CLEAR 70 69 97 CALM 30.08S WASHINGTON CLEAR 71 70 97 CALM 30.07S WHITEVILLE PTCLDY 75 72 90 CALM 30.08S $$ AMZ130-135-150-152-154-156-158-170-250-252-270-ANZ085-086-088-633-658-670-020600- MARINE OBSERVATIONS STATION/POSITION TIME TEMP WIND PRES WAVE SWELL AIR SEA DIR/SP/G HT/PER HT/PER (UTC) (F) (DEG/KT/KT) (MB) (FT/S) (FT/S) CHESAPEAKE LIGHT 0500 77 210/ 7/ 7 1018.4 64 E VA BEACH 0450 77 78 290/ 2/ 4 1017.5 2/ 7 2/ 7 DUCK 0400 78 78 170/ 4/ 5 1017.1 2 E DUCK 0411 81 N/A 1/10 OREGON INLET 0400 77 83 80/ 1/ 1 1017.8 13E OREGON INLT 0500 79 N/A 2/10 HATTERAS CG 0400 78 83 230/ 3/ 4 1017.7 DIAMOND BUOY 0450 80 83 280/ 6/ 8 1018.0 2/ 8 2/ 8 CAPE LOOKOUT 0500 79 260/ 7/ 9 1017.9 BEAUFORT LAB 0400 78 80 290/ 2/ 4 1017.7 30 SE NEW RVR IN 0408 81 81 260/ 10/ 14 1018.8 30 SE NEW RVR IN 0425 81 N/A 2/ 7 27 SE WRIGHTSVLE 0400 77 82 260/ 10/ 12 N/A 5 SE WRIGHTSVLE 0408 81 82 240/ 12/ 14 1018.5 225 S CAPE HAT 0450 84 84 270/ 8/ 12 1018.3 3/ 5 3/ 5 41 SE CHARLESTON 0450 83 83 180/ 8/ 10 1018.2 2/ 8 2/ 8 $$

USA.gov is the U.S. government's official web portal to all federal, state and local government web resources and services.